QPF
0.00 0.00 0.00 0.01 0.01 0.01 0.02 0.01 0.01 0.00 0.00 0.00 0.00 0.01 0.01 0.02 0.02 0.01 0.02 0.01 0.01 0.00 0.00 0.00 0.01 0.01 0.02 0.03 0.03 0.04 0.09 0.10 0.08 0.07 0.10 0.12 0.13 0.12 0.10 0.11 0.10 0.08 0.09 0.09
0.00 0.00 0.00 0.00 0.00 0.00 0.01 0.01 0.01 0.00 0.00 0.00 0.00 0.00 0.01 0.00 0.01 0.01 0.02 0.01 0.01 0.00 0.00 0.00 0.00 0.01 0.02 0.04 0.04 0.04 0.06 0.09 0.08 0.07 0.07 0.10 0.11 0.11 0.10 0.13 0.15 0.10 0.09 0.08
0.00 0.00 0.00 0.00 0.00 0.00 0.01 0.02 0.01 0.00 0.00 0.00 0.02 0.02 0.01 0.00 0.00 0.01 0.02 0.01 0.01 0.00 0.00 0.00 0.00 0.01 0.02 0.03 0.04 0.04 0.04 0.07 0.08 0.08 0.06 0.06 0.09 0.08 0.11 0.13 0.15 0.13 0.10 0.08
0.00 0.00 0.00 0.00 0.00 0.00 0.00 0.01 0.01 0.00 0.00 0.00 0.01 0.03 0.03 0.02 0.00 0.00 0.01 0.01 0.01 0.00 0.00 0.00 0.00 0.01 0.02 0.03 0.03 0.04 0.04 0.05 0.08 0.06 0.06 0.06 0.08 0.09 0.11 0.11 0.13 0.14 0.13 0.10
0.00 0.00 0.00 0.00 0.00 0.00 0.00 0.00 0.00 0.00 0.00 0.01 0.00 0.02 0.03 0.05 0.01 0.00 0.00 0.00 0.00 0.00 0.00 0.00 0.00 0.00 0.01 0.01 0.02 0.03 0.04 0.06 0.08 0.06 0.06 0.07 0.07 0.07 0.07 0.07 0.11 0.11 0.11 0.08
0.00 0.00 0.00 0.00 0.00 0.00 0.00 0.00 0.00 0.00 0.00 0.01 0.00 0.01 0.04 0.05 0.02 0.01 0.00 0.00 0.00 0.00 0.00 0.00 0.00 0.00 0.00 0.01 0.01 0.02 0.03 0.05 0.05 0.05 0.05 0.06 0.07 0.08 0.07 0.06 0.08 0.08 0.07 0.05
0.00 0.00 0.00 0.00 0.00 0.00 0.00 0.01 0.01 0.01 0.01 0.01 0.00 0.01 0.02 0.01 0.01 0.00 0.00 0.00 0.00 0.00 0.00 0.00 0.00 0.00 0.00 0.00 0.00 0.01 0.01 0.03 0.04 0.04 0.03 0.04 0.06 0.07 0.06 0.06 0.08 0.08 0.05 0.04
0.00 0.00 0.00 0.00 0.00 0.00 0.00 0.00 0.00 0.01 0.01 0.01 0.00 0.00 0.01 0.01 0.00 0.00 0.00 0.00 0.00 0.00 0.00 0.00 0.00 0.00 0.00 0.00 0.00 0.00 0.01 0.02 0.03 0.03 0.03 0.03 0.04 0.05 0.05 0.07 0.06 0.06 0.05 0.05
0.00 0.00 0.00 0.00 0.00 0.00 0.00 0.00 0.00 0.00 0.01 0.01 0.01 0.00 0.00 0.00 0.00 0.00 0.00 0.00 0.00 0.00 0.00 0.00 0.00 0.00 0.00 0.00 0.00 0.00 0.01 0.01 0.02 0.02 0.02 0.03 0.03 0.03 0.05 0.06 0.06 0.06 0.05 0.04
0.00 0.00 0.00 0.00 0.00 0.00 0.00 0.00 0.01 0.01 0.01 0.01 0.01 0.01 0.01 0.01 0.00 0.00 0.00 0.00 0.00 0.00 0.00 0.00 0.00 0.00 0.00 0.00 0.00 0.00 0.00 0.01 0.02 0.02 0.02 0.02 0.02 0.03 0.03 0.04 0.04 0.04 0.03 0.03
0.00 0.00 0.00 0.00 0.00 0.00 0.00 0.00 0.00 0.00 0.00 0.00 0.01 0.02 0.01 0.01 0.00 0.00 0.00 0.00 0.00 0.00 0.00 0.00 0.00 0.00 0.00 0.00 0.00 0.00 0.00 0.01 0.01 0.01 0.02 0.03 0.03 0.02 0.02 0.03 0.03 0.03 0.03 0.03
0.00 0.00 0.00 0.01 0.00 0.00 0.00 0.00 0.00 0.00 0.00 0.00 0.01 0.02 0.01 0.01 0.01 0.01 0.01 0.00 0.00 0.00 0.00 0.00 0.00 0.00 0.00 0.00 0.00 0.00 0.00 0.00 0.00 0.00 0.01 0.02 0.02 0.02 0.02 0.03 0.03 0.03 0.03 0.03
0.00 0.00 0.00 0.00 0.00 0.00 0.00 0.00 0.00 0.00 0.00 0.00 0.01 0.02 0.01 0.01 0.01 0.02 0.01 0.00 0.00 0.00 0.00 0.00 0.00 0.00 0.00 0.00 0.00 0.01 0.00 0.00 0.00 0.00 0.01 0.02 0.02 0.02 0.02 0.02 0.02 0.02 0.03 0.03
0.00 0.00 0.00 0.00 0.00 0.00 0.00 0.00 0.00 0.00 0.00 0.00 0.00 0.01 0.01 0.01 0.00 0.01 0.00 0.00 0.00 0.01 0.00 0.00 0.00 0.00 0.00 0.00 0.00 0.00 0.00 0.01 0.01 0.01 0.01 0.02 0.02 0.02 0.02 0.02 0.02 0.02 0.02 0.02
0.00 0.00 0.00 0.00 0.00 0.00 0.00 0.00 0.00 0.00 0.00 0.00 0.00 0.01 0.01 0.00 0.00 0.00 0.01 0.01 0.01 0.01 0.01 0.00 0.00 0.00 0.00 0.00 0.00 0.00 0.00 0.01 0.01 0.02 0.01 0.01 0.02 0.03 0.03 0.02 0.01 0.01 0.01 0.02
0.00 0.00 0.00 0.00 0.00 0.00 0.00 0.00 0.00 0.00 0.00 0.00 0.00 0.00 0.00 0.00 0.01 0.00 0.00 0.01 0.01 0.01 0.01 0.00 0.00 0.00 0.00 0.00 0.00 0.00 0.00 0.01 0.01 0.02 0.02 0.01 0.02 0.03 0.02 0.02 0.02 0.02 0.01 0.02
0.00 0.00 0.00 0.00 0.00 0.00 0.00 0.00 0.00 0.00 0.00 0.00 0.00 0.00 0.00 0.00 0.00 0.00 0.00 0.00 0.00 0.00 0.00 0.01 0.00 0.00 0.00 0.00 0.00 0.00 0.00 0.00 0.01 0.01 0.01 0.01 0.02 0.02 0.02 0.02 0.03 0.02 0.01 0.01
0.00 0.00 0.00 0.00 0.00 0.00 0.00 0.00 0.00 0.00 0.00 0.00 0.00 0.00 0.00 0.00 0.00 0.00 0.00 0.00 0.00 0.00 0.00 0.00 0.00 0.00 0.00 0.01 0.01 0.00 0.00 0.00 0.01 0.01 0.01 0.01 0.01 0.01 0.02 0.03 0.02 0.02 0.02 0.02
0.00 0.00 0.00 0.00 0.00 0.00 0.00 0.00 0.00 0.00 0.00 0.00 0.00 0.00 0.00 0.00 0.00 0.00 0.00 0.00 0.00 0.00 0.00 0.00 0.00 0.00 0.01 0.01 0.01 0.01 0.00 0.01 0.01 0.01 0.01 0.01 0.01 0.01 0.01 0.02 0.02 0.02 0.02 0.02
0.00 0.00 0.00 0.00 0.00 0.00 0.00 0.00 0.00 0.00 0.00 0.00 0.00 0.00 0.00 0.01 0.00 0.01 0.00 0.00 0.00 0.00 0.00 0.00 0.00 0.01 0.01 0.01 0.02 0.01 0.01 0.01 0.00 0.00 0.01 0.01 0.01 0.01 0.01 0.01 0.02 0.03 0.03 0.02
0.00 0.00 0.00 0.00 0.00 0.00 0.00 0.00 0.00 0.00 0.00 0.00 0.00 0.00 0.00 0.00 0.00 0.00 0.00 0.00 0.00 0.00 0.01 0.01 0.01 0.01 0.01 0.01 0.02 0.03 0.02 0.01 0.01 0.01 0.01 0.01 0.01 0.01 0.02 0.03 0.03 0.03 0.03 0.03
0.00 0.00 0.00 0.00 0.00 0.00 0.00 0.00 0.00 0.00 0.00 0.00 0.00 0.00 0.00 0.00 0.00 0.00 0.00 0.00 0.00 0.01 0.01 0.01 0.01 0.01 0.01 0.02 0.02 0.02 0.02 0.02 0.01 0.02 0.02 0.02 0.02 0.01 0.02 0.03 0.03 0.03 0.04 0.04
0.01 0.01 0.00 0.00 0.00 0.00 0.00 0.00 0.00 0.00 0.00 0.00 0.00 0.00 0.00 0.00 0.00 0.00 0.00 0.00 0.00 0.00 0.00 0.00 0.01 0.01 0.02 0.03 0.03 0.03 0.03 0.03 0.03 0.03 0.04 0.03 0.03 0.02 0.02 0.03 0.03 0.04 0.04 0.04
0.01 0.01 0.01 0.01 0.00 0.00 0.00 0.00 0.00 0.00 0.01 0.01 0.00 0.00 0.00 0.00 0.00 0.00 0.00 0.00 0.00 0.00 0.00 0.00 0.01 0.02 0.03 0.04 0.04 0.04 0.05 0.04 0.04 0.04 0.04 0.04 0.04 0.02 0.03 0.03 0.03 0.03 0.03 0.03
0.02 0.02 0.02 0.02 0.01 0.00 0.01 0.00 0.00 0.00 0.00 0.00 0.00 0.00 0.00 0.00 0.00 0.00 0.00 0.00 0.01 0.00 0.00 0.00 0.01 0.02 0.02 0.03 0.03 0.04 0.05 0.05 0.05 0.04 0.05 0.04 0.04 0.03 0.04 0.04 0.03 0.03 0.03 0.03
0.05 0.03 0.04 0.03 0.02 0.02 0.02 0.01 0.01 0.00 0.00 0.00 0.00 0.00 0.00 0.00 0.00 0.00 0.00 0.00 0.00 0.00 0.00 0.00 0.01 0.01 0.02 0.02 0.02 0.02 0.03 0.05 0.08 0.07 0.07 0.06 0.05 0.05 0.04 0.04 0.05 0.04 0.04 0.03
MSLP
1004.10 1004.50 1004.80 1005.00 1005.15 1005.30 1005.50 1005.76 1006.08 1006.43 1006.77 1007.07 1007.29 1007.44 1007.54 1007.61 1007.70 1007.83 1008.01 1008.24 1008.50 1008.76 1008.98 1009.15 1009.28 1009.38 1009.47 1009.59 1009.76 1010.00 1010.30 1010.64 1010.96 1011.23 1011.42 1011.51 1011.49 1011.38 1011.23 1011.07 1010.93 1010.85 1010.82 1010.84
1004.98 1005.22 1005.31 1005.31 1005.28 1005.30 1005.41 1005.65 1005.99 1006.38 1006.76 1007.07 1007.28 1007.38 1007.39 1007.36 1007.34 1007.38 1007.52 1007.74 1008.04 1008.37 1008.67 1008.93 1009.12 1009.24 1009.33 1009.43 1009.57 1009.78 1010.07 1010.42 1010.78 1011.12 1011.39 1011.55 1011.59 1011.53 1011.40 1011.24 1011.10 1011.01 1010.99 1011.04
1005.76 1005.81 1005.70 1005.52 1005.35 1005.28 1005.37 1005.64 1006.04 1006.51 1006.94 1007.27 1007.45 1007.46 1007.33 1007.14 1006.96 1006.87 1006.91 1007.10 1007.42 1007.81 1008.22 1008.58 1008.86 1009.06 1009.18 1009.29 1009.41 1009.60 1009.88 1010.23 1010.62 1011.00 1011.33 1011.55 1011.66 1011.64 1011.55 1011.41 1011.28 1011.20 1011.20 1011.26
1006.33 1006.19 1005.91 1005.59 1005.34 1005.26 1005.41 1005.77 1006.29 1006.87 1007.38 1007.73 1007.86 1007.75 1007.44 1007.03 1006.63 1006.34 1006.23 1006.34 1006.64 1007.09 1007.59 1008.07 1008.48 1008.77 1008.98 1009.12 1009.26 1009.45 1009.71 1010.06 1010.46 1010.87 1011.24 1011.53 1011.69 1011.74 1011.68 1011.58 1011.47 1011.41 1011.42 1011.51
1006.63 1006.33 1005.92 1005.52 1005.26 1005.24 1005.49 1006.01 1006.70 1007.43 1008.04 1008.42 1008.49 1008.24 1007.72 1007.06 1006.39 1005.86 1005.55 1005.53 1005.78 1006.24 1006.82 1007.42 1007.95 1008.37 1008.67 1008.89 1009.06 1009.26 1009.53 1009.87 1010.28 1010.72 1011.13 1011.47 1011.70 1011.80 1011.80 1011.74 1011.67 1011.63 1011.66 1011.77
1006.71 1006.28 1005.77 1005.34 1005.12 1005.20 1005.61 1006.32 1007.20 1008.09 1008.81 1009.22 1009.24 1008.85 1008.13 1007.20 1006.26 1005.45 1004.92 1004.73 1004.88 1005.32 1005.95 1006.63 1007.28 1007.83 1008.24 1008.54 1008.77 1009.00 1009.28 1009.64 1010.06 1010.53 1010.98 1011.37 1011.66 1011.83 1011.89 1011.88 1011.85 1011.84 1011.89 1012.00
1006.68 1006.13 1005.57 1005.13 1004.96 1005.15 1005.72 1006.61 1007.67 1008.71 1009.54 1009.99 1009.96 1009.46 1008.56 1007.40 1006.19 1005.13 1004.37 1004.00 1004.03 1004.41 1005.04 1005.78 1006.52 1007.16 1007.68 1008.06 1008.37 1008.64 1008.96 1009.33 1009.78 1010.27 1010.77 1011.22 1011.57 1011.81 1011.93 1011.98 1011.99 1012.00 1012.07 1012.19
1006.69 1006.06 1005.44 1004.99 1004.86 1005.13 1005.81 1006.82 1008.01 1009.16 1010.06 1010.53 1010.49 1009.90 1008.87 1007.54 1006.14 1004.87 1003.91 1003.37 1003.27 1003.56 1004.16 1004.92 1005.70 1006.42 1007.02 1007.48 1007.86 1008.19 1008.54 1008.96 1009.44 1009.97 1010.51 1011.01 1011.42 1011.72 1011.91 1012.01 1012.06 1012.10 1012.18 1012.31
1006.94 1006.23 1005.55 1005.08 1004.93 1005.21 1005.90 1006.94 1008.15 1009.32 1010.24 1010.72 1010.65 1010.03 1008.93 1007.51 1005.99 1004.60 1003.51 1002.83 1002.62 1002.83 1003.37 1004.11 1004.90 1005.66 1006.31 1006.84 1007.28 1007.67 1008.07 1008.53 1009.05 1009.63 1010.21 1010.76 1011.23 1011.59 1011.83 1011.97 1012.05 1012.12 1012.21 1012.36
1007.56 1006.79 1006.05 1005.50 1005.27 1005.45 1006.05 1006.98 1008.09 1009.18 1010.02 1010.46 1010.37 1009.74 1008.64 1007.21 1005.69 1004.26 1003.12 1002.38 1002.08 1002.22 1002.70 1003.39 1004.17 1004.93 1005.61 1006.19 1006.68 1007.13 1007.60 1008.10 1008.67 1009.29 1009.91 1010.50 1011.02 1011.42 1011.70 1011.88 1011.99 1012.08 1012.19 1012.35
1008.64 1007.82 1007.01 1006.35 1005.96 1005.95 1006.31 1007.00 1007.88 1008.75 1009.43 1009.75 1009.62 1009.00 1007.95 1006.60 1005.15 1003.79 1002.68 1001.94 1001.63 1001.72 1002.14 1002.78 1003.52 1004.27 1004.97 1005.58 1006.12 1006.63 1007.15 1007.71 1008.33 1008.98 1009.64 1010.27 1010.81 1011.25 1011.56 1011.77 1011.91 1012.03 1012.16 1012.34
1010.11 1009.27 1008.39 1007.60 1007.01 1006.72 1006.76 1007.09 1007.60 1008.16 1008.58 1008.73 1008.51 1007.89 1006.92 1005.70 1004.39 1003.16 1002.16 1001.49 1001.20 1001.28 1001.66 1002.26 1002.97 1003.70 1004.40 1005.04 1005.63 1006.19 1006.77 1007.39 1008.05 1008.74 1009.42 1010.07 1010.64 1011.10 1011.45 1011.69 1011.86 1012.01 1012.17 1012.38
1011.82 1011.00 1010.08 1009.15 1008.34 1007.73 1007.39 1007.30 1007.38 1007.54 1007.63 1007.55 1007.21 1006.57 1005.67 1004.59 1003.46 1002.41 1001.56 1000.99 1000.76 1000.86 1001.23 1001.80 1002.48 1003.19 1003.90 1004.57 1005.20 1005.83 1006.46 1007.13 1007.83 1008.55 1009.27 1009.93 1010.52 1011.01 1011.38 1011.66 1011.88 1012.06 1012.27 1012.52
1013.54 1012.79 1011.85 1010.82 1009.80 1008.90 1008.18 1007.65 1007.28 1007.01 1006.74 1006.39 1005.89 1005.20 1004.36 1003.40 1002.44 1001.57 1000.88 1000.44 1000.29 1000.42 1000.80 1001.35 1002.01 1002.72 1003.44 1004.14 1004.83 1005.51 1006.21 1006.93 1007.67 1008.42 1009.15 1009.83 1010.44 1010.95 1011.37 1011.70 1011.97 1012.22 1012.48 1012.78
1015.03 1014.36 1013.45 1012.37 1011.22 1010.08 1009.03 1008.12 1007.34 1006.66 1006.04 1005.41 1004.73 1003.97 1003.14 1002.28 1001.45 1000.73 1000.18 999.86 999.79 999.95 1000.34 1000.89 1001.55 1002.27 1003.01 1003.75 1004.49 1005.23 1005.98 1006.75 1007.52 1008.30 1009.05 1009.75 1010.39 1010.94 1011.40 1011.79 1012.13 1012.46 1012.79 1013.14
1016.07 1015.50 1014.66 1013.59 1012.38 1011.10 1009.83 1008.62 1007.52 1006.52 1005.60 1004.72 1003.87 1003.01 1002.16 1001.34 1000.60 999.98 999.53 999.29 999.27 999.47 999.86 1000.42 1001.08 1001.81 1002.58 1003.37 1004.16 1004.96 1005.76 1006.57 1007.38 1008.18 1008.95 1009.67 1010.33 1010.92 1011.45 1011.91 1012.34 1012.75 1013.16 1013.58
1016.54 1016.06 1015.32 1014.31 1013.12 1011.80 1010.43 1009.08 1007.78 1006.56 1005.43 1004.36 1003.35 1002.40 1001.50 1000.69 999.97 999.39 998.99 998.79 998.79 999.00 999.40 999.95 1000.62 1001.37 1002.18 1003.01 1003.85 1004.70 1005.55 1006.40 1007.24 1008.05 1008.84 1009.58 1010.27 1010.91 1011.49 1012.03 1012.55 1013.04 1013.53 1014.01
1016.41 1016.01 1015.36 1014.46 1013.36 1012.11 1010.77 1009.39 1008.03 1006.72 1005.48 1004.30 1003.19 1002.16 1001.20 1000.35 999.62 999.03 998.63 998.42 998.41 998.61 999.00 999.55 1000.23 1001.00 1001.84 1002.71 1003.60 1004.50 1005.38 1006.26 1007.11 1007.93 1008.72 1009.48 1010.19 1010.87 1011.51 1012.13 1012.72 1013.29 1013.85 1014.38
1015.82 1015.44 1014.86 1014.08 1013.12 1012.01 1010.79 1009.52 1008.22 1006.94 1005.68 1004.48 1003.32 1002.23 1001.23 1000.32 999.54 998.91 998.47 998.22 998.18 998.35 998.73 999.27 999.96 1000.75 1001.62 1002.53 1003.46 1004.39 1005.30 1006.18 1007.04 1007.86 1008.65 1009.40 1010.13 1010.83 1011.51 1012.18 1012.83 1013.46 1014.07 1014.64
1014.94 1014.54 1014.01 1013.34 1012.52 1011.59 1010.56 1009.46 1008.32 1007.15 1005.97 1004.80 1003.65 1002.55 1001.50 1000.54 999.70 999.02 998.52 998.22 998.14 998.28 998.64 999.18 999.88 1000.69 1001.59 1002.53 1003.48 1004.43 1005.35 1006.23 1007.07 1007.87 1008.64 1009.38 1010.10 1010.81 1011.51 1012.20 1012.88 1013.55 1014.18 1014.77
1013.99 1013.52 1013.00 1012.40 1011.73 1010.99 1010.17 1009.28 1008.33 1007.33 1006.28 1005.20 1004.10 1003.00 1001.93 1000.94 1000.05 999.31 998.75 998.41 998.30 998.42 998.76 999.31 1000.02 1000.85 1001.77 1002.72 1003.69 1004.64 1005.55 1006.42 1007.24 1008.01 1008.74 1009.45 1010.15 1010.84 1011.53 1012.21 1012.89 1013.56 1014.20 1014.79
1013.10 1012.55 1012.01 1011.47 1010.92 1010.34 1009.73 1009.05 1008.32 1007.50 1006.60 1005.63 1004.59 1003.52 1002.46 1001.44 1000.52 999.74 999.15 998.78 998.65 998.76 999.10 999.66 1000.38 1001.23 1002.16 1003.12 1004.09 1005.03 1005.92 1006.75 1007.53 1008.26 1008.95 1009.61 1010.27 1010.92 1011.57 1012.23 1012.88 1013.53 1014.14 1014.72
1012.35 1011.72 1011.15 1010.65 1010.20 1009.77 1009.33 1008.85 1008.30 1007.65 1006.90 1006.03 1005.07 1004.05 1003.00 1001.98 1001.04 1000.25 999.65 999.28 999.15 999.27 999.63 1000.20 1000.93 1001.79 1002.72 1003.68 1004.63 1005.54 1006.39 1007.18 1007.91 1008.59 1009.23 1009.84 1010.44 1011.04 1011.64 1012.25 1012.86 1013.46 1014.04 1014.59
1011.70 1011.01 1010.44 1009.98 1009.62 1009.31 1009.02 1008.71 1008.31 1007.81 1007.18 1006.41 1005.52 1004.53 1003.51 1002.50 1001.58 1000.80 1000.22 999.86 999.75 999.90 1000.28 1000.86 1001.61 1002.46 1003.37 1004.31 1005.22 1006.09 1006.90 1007.64 1008.31 1008.94 1009.52 1010.08 1010.62 1011.17 1011.72 1012.27 1012.83 1013.38 1013.92 1014.43
1011.02 1010.34 1009.80 1009.41 1009.14 1008.95 1008.80 1008.61 1008.35 1007.97 1007.43 1006.73 1005.90 1004.96 1003.96 1002.99 1002.09 1001.35 1000.80 1000.48 1000.41 1000.58 1000.99 1001.58 1002.32 1003.15 1004.03 1004.92 1005.78 1006.59 1007.33 1008.01 1008.63 1009.20 1009.74 1010.25 1010.75 1011.25 1011.75 1012.25 1012.76 1013.26 1013.76 1014.24
1010.14 1009.53 1009.08 1008.80 1008.65 1008.60 1008.58 1008.52 1008.37 1008.07 1007.61 1006.98 1006.19 1005.29 1004.34 1003.40 1002.55 1001.85 1001.35 1001.08 1001.05 1001.26 1001.68 1002.27 1002.99 1003.78 1004.60 1005.42 1006.20 1006.93 1007.61 1008.22 1008.79 1009.32 1009.81 1010.29 1010.76 1011.23 1011.69 1012.16 1012.62 1013.08 1013.54 1013.99
Thickness
5862 5848 5840 5847 5856 5854 5851 5844 5837 5847 5865 5856 5844 5836 5838 5846 5844 5838 5833 5830 5825 5822 5824 5823 5821 5818 5813 5809 5805 5801 5798 5795 5793 5790 5788 5785 5784 5786 5787 5786 5786 5785 5784 5783
5846 5839 5858 5868 5866 5860 5851 5841 5838 5851 5863 5856 5844 5840 5843 5847 5846 5845 5840 5834 5830 5826 5824 5821 5820 5818 5813 5808 5805 5802 5798 5796 5794 5791 5789 5788 5787 5787 5787 5786 5785 5784 5783 5783
5839 5855 5873 5866 5859 5852 5850 5843 5843 5843 5854 5854 5841 5828 5834 5845 5851 5850 5848 5843 5838 5831 5825 5821 5819 5817 5815 5810 5806 5804 5800 5797 5795 5793 5791 5790 5787 5785 5784 5783 5783 5784 5783 5782
5851 5869 5869 5860 5855 5854 5843 5860 5856 5851 5841 5832 5838 5806 5823 5835 5841 5844 5845 5844 5841 5837 5832 5826 5822 5818 5816 5813 5810 5806 5801 5798 5796 5793 5790 5786 5782 5779 5780 5782 5782 5782 5781 5781
5846 5862 5860 5852 5857 5861 5856 5869 5863 5857 5844 5833 5836 5820 5820 5834 5829 5837 5845 5847 5846 5843 5838 5831 5827 5822 5820 5817 5813 5808 5803 5798 5796 5793 5791 5787 5783 5782 5783 5783 5781 5780 5780 5780
5855 5872 5871 5866 5872 5873 5869 5862 5858 5855 5842 5814 5835 5824 5812 5830 5832 5838 5844 5850 5850 5847 5843 5837 5833 5828 5823 5820 5815 5810 5803 5798 5796 5793 5791 5787 5784 5782 5780 5779 5778 5777 5778 5778
5838 5856 5871 5876 5859 5864 5860 5838 5818 5810 5807 5809 5843 5833 5824 5848 5855 5853 5850 5854 5855 5852 5845 5839 5833 5827 5823 5820 5816 5811 5804 5798 5796 5793 5791 5788 5786 5783 5780 5778 5777 5776 5776 5776
5825 5831 5860 5867 5857 5847 5851 5843 5813 5797 5799 5812 5833 5827 5841 5866 5868 5867 5864 5861 5859 5854 5849 5842 5836 5831 5826 5822 5817 5813 5806 5800 5797 5794 5791 5789 5786 5784 5782 5780 5779 5777 5776 5777
5828 5833 5864 5869 5871 5860 5844 5841 5852 5833 5822 5813 5822 5835 5852 5866 5866 5866 5862 5859 5857 5855 5851 5846 5841 5836 5831 5826 5821 5816 5809 5802 5799 5795 5792 5789 5786 5784 5783 5781 5780 5779 5778 5778
5838 5825 5848 5863 5864 5863 5859 5853 5842 5827 5805 5799 5813 5821 5829 5845 5853 5855 5855 5854 5855 5856 5853 5849 5844 5839 5836 5831 5825 5819 5812 5806 5801 5797 5794 5791 5787 5785 5783 5781 5779 5779 5778 5777
5839 5820 5830 5843 5837 5838 5844 5842 5838 5834 5830 5807 5798 5811 5851 5849 5855 5857 5858 5859 5857 5854 5853 5850 5846 5843 5838 5832 5827 5820 5814 5808 5803 5799 5795 5792 5788 5786 5784 5781 5779 5778 5777 5776
5832 5821 5812 5829 5852 5859 5851 5844 5839 5818 5816 5823 5812 5817 5864 5861 5862 5859 5858 5860 5860 5856 5854 5853 5848 5842 5837 5831 5826 5820 5815 5809 5805 5801 5796 5792 5789 5786 5783 5781 5779 5777 5775 5774
5819 5807 5791 5803 5823 5841 5839 5843 5845 5843 5833 5822 5811 5817 5862 5863 5857 5855 5855 5857 5855 5852 5853 5851 5846 5839 5834 5830 5825 5820 5815 5810 5806 5801 5796 5791 5787 5784 5781 5780 5778 5776 5774 5772
5815 5799 5791 5787 5806 5824 5823 5831 5837 5832 5818 5815 5820 5824 5842 5848 5847 5849 5851 5851 5849 5846 5845 5845 5841 5837 5833 5828 5823 5818 5814 5811 5806 5801 5795 5789 5786 5783 5780 5779 5776 5774 5772 5770
5805 5788 5794 5803 5816 5823 5823 5824 5828 5824 5823 5816 5821 5828 5836 5844 5844 5845 5847 5844 5841 5839 5836 5838 5836 5833 5829 5825 5820 5816 5812 5809 5805 5799 5793 5789 5786 5783 5780 5777 5774 5772 5770 5768
5792 5779 5782 5785 5802 5810 5811 5819 5823 5823 5824 5822 5824 5826 5845 5849 5847 5842 5839 5837 5833 5831 5832 5833 5831 5828 5824 5821 5817 5814 5810 5807 5803 5796 5792 5789 5785 5781 5778 5775 5772 5770 5768 5766
5777 5769 5762 5765 5787 5790 5786 5809 5816 5818 5825 5822 5813 5822 5837 5832 5831 5831 5834 5833 5831 5829 5828 5826 5825 5823 5820 5819 5816 5811 5808 5805 5800 5794 5790 5787 5783 5778 5775 5774 5770 5767 5765 5763
5763 5757 5755 5757 5761 5747 5786 5822 5823 5817 5818 5824 5823 5826 5830 5828 5829 5833 5834 5830 5826 5826 5824 5822 5822 5819 5818 5817 5814 5810 5807 5802 5797 5792 5788 5785 5781 5776 5773 5771 5767 5765 5763 5760
5766 5752 5745 5745 5744 5756 5782 5803 5810 5803 5801 5816 5815 5818 5823 5825 5822 5820 5827 5828 5824 5822 5821 5819 5819 5817 5814 5812 5810 5806 5802 5798 5794 5789 5786 5783 5779 5774 5770 5767 5765 5763 5760 5757
5760 5752 5738 5736 5730 5735 5767 5799 5814 5802 5782 5807 5809 5807 5810 5809 5795 5799 5815 5819 5818 5816 5815 5813 5812 5810 5807 5806 5805 5800 5796 5793 5790 5788 5785 5782 5778 5773 5769 5765 5762 5760 5758 5755
5735 5732 5727 5726 5727 5744 5776 5795 5797 5767 5770 5797 5801 5799 5798 5792 5793 5801 5807 5807 5807 5807 5806 5806 5803 5801 5799 5799 5797 5791 5790 5788 5788 5787 5783 5779 5775 5771 5767 5763 5760 5757 5754 5751
5726 5722 5720 5723 5719 5731 5771 5778 5768 5768 5784 5788 5788 5789 5787 5788 5792 5794 5794 5794 5795 5794 5795 5795 5792 5791 5791 5792 5789 5785 5784 5785 5785 5782 5778 5775 5772 5769 5766 5759 5755 5753 5750 5746
5726 5727 5726 5726 5729 5746 5761 5762 5767 5774 5771 5774 5776 5777 5777 5777 5778 5781 5781 5782 5783 5784 5784 5784 5782 5781 5782 5783 5782 5778 5778 5779 5777 5774 5771 5769 5767 5764 5761 5755 5751 5747 5744 5741
5720 5728 5721 5720 5729 5739 5746 5753 5758 5761 5761 5765 5767 5768 5769 5766 5768 5769 5770 5771 5772 5773 5773 5773 5771 5770 5770 5773 5774 5773 5772 5771 5769 5766 5763 5761 5758 5756 5753 5750 5748 5743 5740 5737
5702 5706 5705 5705 5717 5726 5733 5738 5743 5748 5752 5753 5756 5758 5758 5757 5756 5758 5759 5760 5761 5762 5762 5762 5760 5759 5760 5763 5764 5766 5766 5764 5760 5758 5756 5754 5752 5749 5744 5741 5739 5737 5735 5733
5695 5693 5689 5692 5705 5709 5715 5726 5732 5732 5735 5740 5742 5744 5749 5748 5747 5748 5749 5751 5752 5752 5752 5751 5750 5751 5752 5753 5755 5757 5758 5756 5752 5749 5748 5747 5745 5741 5738 5734 5730 5728 5728 5726